www.pogodaiklimat.ru

Погода и климат >> Архив погоды >> Антарктида >> Marble Point


ПОГОДА в Marble Point

  • Прогноз погоды в Marble Point
  • Монитор погоды в Marble Point
  • Климат города

АРХИВ ПОГОДЫ в Marble Point

Время (UTC), дата Ветер
(напр.,м/с)
 
Видим.   Явления Облачность Т
(С)
Тd
(С)
f
(%)
Тe
(С)
Тes
(С)
Комфортность P
(гПа)
Po
(гПа)
Тmin
(С)
Tmax
(С)
R
(мм)
R24
(мм)
S
(см)
08 19.09 0 н/о н/о -23.1 956.7
07 19.09 0 н/о н/о -18.3 956.8
09 19.09 0 н/о н/о -23.3 956.6
10 19.09 0 н/о н/о -22.8 956.6
11 19.09 0 н/о н/о -23.3 956.9
12 19.09 0 н/о н/о -22.5 956.9
14 19.09 0 н/о н/о -20.1 956.6
13 19.09 0 н/о н/о -21.3 956.7
15 19.09 0 н/о н/о -19.6 956.1
16 19.09 0 н/о н/о -22.1 956.5
17 19.09 0 н/о н/о -23.3 956.6
18 19.09 0 н/о н/о -22.8 956.9
20 19.09 0 н/о н/о -21.8 958.3
19 19.09 0 н/о н/о -24.3 957.8
21 19.09 0 н/о н/о -20.9 958.9
22 19.09 0 н/о н/о -17.3 959.4
23 19.09 0 н/о н/о -15.0 960.2
00 20.09 0 н/о н/о -15.0 960.7
02 20.09 0 н/о н/о -20.1 962.8
01 20.09 0 н/о н/о -15.9 962.0
03 20.09 0 н/о н/о -17.9 963.4
04 20.09 0 н/о н/о -17.3 964.0
05 20.09 0 н/о н/о -14.6 964.5
06 20.09 0 н/о н/о -13.3 965.4
08 20.09 0 н/о н/о -13.9 966.6
07 20.09 0 н/о н/о -13.4 966.2
09 20.09 0 н/о н/о -16.8 967.5
10 20.09 0 н/о н/о -17.3 967.7
11 20.09 0 н/о н/о -19.3 968.7
12 20.09 0 н/о н/о -20.0 969.7
14 20.09 0 н/о н/о -18.3 970.9
13 20.09 0 н/о н/о -19.0 970.7
15 20.09 0 н/о н/о -18.9 971.0
16 20.09 0 н/о н/о -19.6 971.6
17 20.09 0 н/о н/о -18.0 971.7
18 20.09 0 н/о н/о -17.3 972.2
20 20.09 0 н/о н/о -17.0 971.9
19 20.09 0 н/о н/о -17.3 972.1
21 20.09 0 н/о н/о -15.9 971.4
22 20.09 0 н/о н/о -15.3 970.9
23 20.09 0 н/о н/о -15.3 970.4
00 21.09 0 н/о н/о -14.1 970.0
02 21.09 0 н/о н/о -14.9 969.3
01 21.09 0 н/о н/о -17.4 969.4
03 21.09 0 н/о н/о -16.0 968.8
04 21.09 0 н/о н/о -16.0 968.7
05 21.09 0 н/о н/о -16.5 968.0
06 21.09 0 н/о н/о -16.6 967.8
08 21.09 0 н/о н/о -17.0 967.4
07 21.09 0 н/о н/о -18.0 967.3
09 21.09 0 н/о н/о -17.8 967.7
10 21.09 0 н/о н/о -18.1 968.1
11 21.09 0 н/о н/о -17.4 968.7
12 21.09 0 н/о н/о -18.6 969.5
14 21.09 0 н/о н/о -17.9 970.4
13 21.09 0 н/о н/о -18.3 970.2
15 21.09 0 н/о н/о -18.9 971.2
16 21.09 0 н/о н/о -20.4 971.9
17 21.09 0 н/о н/о -20.9 972.0
18 21.09 0 н/о н/о -21.8 972.8
20 21.09 0 н/о н/о -22.0 974.1
19 21.09 0 н/о н/о -21.9 973.5
21 21.09 0 н/о н/о -21.9 974.8
22 21.09 0 н/о н/о -23.3 972.3
23 21.09 0 н/о н/о -23.8 976.0
00 22.09 0 н/о н/о -24.0 976.4
02 22.09 0 н/о н/о -24.0 976.8
01 22.09 0 н/о н/о -23.8 976.6
03 22.09 0 н/о н/о -24.5 977.0
04 22.09 0 н/о н/о -25.0 977.4
05 22.09 0 н/о н/о -24.9 978.1
06 22.09 0 н/о н/о -22.1 978.2
08 22.09 0 н/о н/о -24.9 978.6
07 22.09 0 н/о н/о -22.6 978.5
09 22.09 0 н/о н/о -25.0 978.8
10 22.09 0 н/о н/о -25.4 979.0
11 22.09 0 н/о н/о -25.6 979.3
12 22.09 0 н/о н/о -26.0 979.2
14 22.09 0 н/о н/о -25.8 979.6
13 22.09 0 н/о н/о -26.0 979.4
15 22.09 0 н/о н/о -26.4 979.5
16 22.09 0 н/о н/о -26.6 979.5
17 22.09 0 н/о н/о -26.6 979.5
18 22.09 0 н/о н/о -26.6 979.3
20 22.09 0 н/о н/о -25.6 978.8
19 22.09 0 н/о н/о -25.6 978.8
21 22.09 0 н/о н/о -23.4 978.5
22 22.09 0 н/о н/о -23.3 979.0
23 22.09 0 н/о н/о -23.2 978.7
00 23.09 0 н/о н/о -23.9 978.8
02 23.09 0 н/о н/о -24.2 977.7
01 23.09 0 н/о н/о -24.9 978.1
03 23.09 0 н/о н/о -24.9 977.7
04 23.09 0 н/о н/о -25.6 978.0
05 23.09 0 н/о н/о -26.1 978.2
06 23.09 0 н/о н/о -26.4 978.5
08 23.09 0 н/о н/о -25.6 978.5
07 23.09 0 н/о н/о -26.1 978.7
09 23.09 0 н/о н/о -26.1 978.2
10 23.09 0 н/о н/о -26.3 978.4
11 23.09 0 н/о н/о -26.4 978.4
12 23.09 0 н/о н/о -25.3 978.1
14 23.09 0 н/о н/о -26.6 978.0
13 23.09 0 н/о н/о -25.5 978.0
15 23.09 0 н/о н/о -27.3 978.0
16 23.09 0 н/о н/о -26.9 978.0
17 23.09 0 н/о н/о -27.4 977.9
18 23.09 0 н/о н/о -26.9 977.3
20 23.09 0 н/о н/о -27.5 977.1
19 23.09 0 н/о н/о -27.9 977.1
21 23.09 0 н/о н/о -26.4 977.2
22 23.09 0 н/о н/о -26.1 977.2
23 23.09 0 н/о н/о -24.9 976.9
00 24.09 0 н/о н/о -24.3 976.4
02 24.09 0 н/о н/о -24.4 976.0
01 24.09 0 н/о н/о -24.4 976.2
03 24.09 0 н/о н/о -26.8 975.7
04 24.09 0 н/о н/о -26.3 975.4
05 24.09 0 н/о н/о -25.6 975.4
06 24.09 0 н/о н/о -26.8 975.6
08 24.09 0 н/о н/о -28.8 975.6
07 24.09 0 н/о н/о -28.4 975.6
09 24.09 0 н/о н/о -29.0 975.6
10 24.09 0 н/о н/о -28.8 975.9
11 24.09 0 н/о н/о -29.0 975.9
12 24.09 0 н/о н/о -29.8 975.8
14 24.09 0 н/о н/о -27.1 975.5
13 24.09 0 н/о н/о -29.6 975.7
15 24.09 0 н/о н/о -26.9 975.3
16 24.09 0 н/о н/о -30.3 975.1
17 24.09 0 н/о н/о -29.1 975.0
18 24.09 0 н/о н/о -29.1 974.8
20 24.09 0 н/о н/о -26.8 974.4
19 24.09 0 н/о н/о -27.5 974.7
21 24.09 0 н/о н/о -26.6 974.2
22 24.09 0 н/о н/о -26.1 974.1
23 24.09 0 н/о н/о -25.8 973.6
00 25.09 0 н/о н/о -27.0 973.0
02 25.09 0 н/о н/о -25.1 972.2
01 25.09 0 н/о н/о -24.1 972.9
03 25.09 0 н/о н/о -24.6 971.7
04 25.09 0 н/о н/о -22.8 971.1
05 25.09 0 н/о н/о -26.9 970.4
06 25.09 0 н/о н/о -23.9 970.3
08 25.09 0 н/о н/о -26.5 969.7
07 25.09 0 н/о н/о -26.4 970.0
09 25.09 0 н/о н/о -26.5 969.7
10 25.09 0 н/о н/о -26.6 969.8
11 25.09 0 н/о н/о -26.9 969.7
12 25.09 0 н/о н/о -28.4 969.7
14 25.09 0 н/о н/о -29.8 969.8
13 25.09 0 н/о н/о -30.5 969.7
15 25.09 0 н/о н/о -29.3 970.0
16 25.09 0 н/о н/о -29.6 969.8
17 25.09 0 н/о н/о -28.6 970.3
18 25.09 0 н/о н/о -28.4 970.1
20 25.09 0 н/о н/о -28.0 970.5
19 25.09 0 н/о н/о -28.1 970.2
21 25.09 0 н/о н/о -28.0 970.6
22 25.09 0 н/о н/о -28.5 970.2
23 25.09 0 н/о н/о -30.3 970.1
00 26.09 0 н/о н/о -29.4 969.9
02 26.09 0 н/о н/о -29.0 970.0
01 26.09 0 н/о н/о -30.5 970.0
03 26.09 0 н/о н/о -29.3 969.8
04 26.09 0 н/о н/о -29.0 970.0
05 26.09 0 н/о н/о -28.5 969.9

 

Местоположение метеостанции Marble Point (Антарктида): широта -77.43 долгота 163.75 высота над уровнем моря 108 м.

В архиве по умолчанию представлена погода в Marble Point за последнюю неделю. Архивные данные за месяц целиком и за предыдущие месяцы, начиная с января 2011 года, Вы можете получить, выбрав интересующий диапазон дат из раскрывающегося списка и нажав кнопку "Ввод!".


*Определитесь, кто Вы:
робот инопланетянин человек

Внимание! Время в таблицах - всемирное. Для получения местного времени необходимо прибавить поправку, которая в Marble Point равна 0 ч.

Смотрите также архив погоды в соседних городах и на ближайших метеорологических станциях:

Погода в Cape Ross (Антарктида) (82 км)
Погода в McMurdo (Антарктида) (84 км)
Погода в Pegasus North (Антарктида) (87 км)
Погода в Minna Bluff (Антарктида) (142 км)
Погода в Linda (Антарктида) (156 км)
Погода в Ferrell (Антарктида) (175 км)
Погода в Manuela (Антарктида) (277 км)
Погода в Marilyn (Антарктида) (282 км)
Погода в Baia Terra Nova (Антарктида) (304 км)
Погода в Schwerdtfeger (Антарктида) (305 км)

Пояснения к столбцам:

Ветер - указаны скорость ветра в м/с - средняя за 10 мин, порывы в срок и между сроками (в фигурных скобках) и направление, откуда дует ветер: С - северный, СВ - северо-восточный, В - восточный, ЮВ - юго-восточный, Ю - южный, ЮЗ - юго-западный, З - западный, СЗ - северо-западный.
Видимость - горизонтальная дальность видимости в метрах или километрах. При видимости от 1 до 10 км при отсутствии осадков обычно наблюдается дымка, при ухудшении видимости до 1 км и менее - туман. В сухую погоду видимость может ухудшаться дымом, пылью или мглою.
Явления - указаны атмосферные явления, наблюдавшиеся в срок или в последний час перед сроком; фигурными скобками обозначены явления, наблюдавшиеся между сроками (за 1-3 часа до срока); квадратными скобками обозначены град или гололедные отложения с указанием их диаметра в мм.
Облачность - указаны через наклонную черту общая и нижняя облачность в баллах и высота нижней границы облаков в метрах; квадратными скобками обозначены формы облаков: Ci - перистые, Cs - перисто-слоистые, Cc - перисто-кучевые, Ac - высококучевые, As - высокослоистые, Sc - слоисто-кучевые, Ns - слоисто-дождевые, Cu - кучевые, Cb - кучево-дождевые. Подробнее классификацию облаков см. в Атласе облаков (PDF).
T - Температура воздуха - температура, измеренная на высоте 2 м над землей.
Td - Температура точки росы - температура, при понижении до которой содержащийся в воздухе водяной пар достигнет насыщения.
f - Относительная влажность воздуха - влажноcть воздуха, измеренная на высоте 2 м над землей.
Te - Эффективная температура - температура, которую ощущает одетый по сезону человек в тени. Характеристика душности погоды. При расчете учитывается влияние влажности воздуха и скорости ветра на теплоощущения человека.
Tes - Эффективная температура на солнце - температура, которую ощущает человек, с поправкой на солнечный нагрев. Характеристика знойности погоды. Зависит от высоты солнца над горизонтом, облачности и скорости ветра. Ночью, в пасмурную погоду, а также при ветре 12 м/с и более поправка равна нулю.
P - Атмосферное давление - приведенное к уровню моря атмосферное давление.
Po - Атмосферное давление - измеренное на уровне метеостанции атмосферное давление.
Tmin - Минимальная температура - минимум температуры воздуха на высоте 2 м над землей.
Tmax - Максимальная температура - максимум температуры воздуха на высоте 2 м над землей.
R - Количество осадков - Количество выпавших осадков за период времени, мм. При наведении курсора мыши на число - период времени, за который выпало указанное количество осадков.
R24 - Количество осадков - Количество выпавших осадков за 24 часа, мм.
S - Снежный покров - Высота снежного покрова, см. При наведении курсора мыши на число - состояние снежного покрова и степень покрытия местности в баллах.